owner,sensor,date,latitude,longitude,vertical_datum,sea_water_practical_salinity,qcFlag 
SCCF RECON,ioos:station:SCCF:12:1,2009-07-01T00:00:00Z,26.4966,-82.1479,2.32,36.32,1111122 
SCCF RECON,ioos:station:SCCF:12:1,2009-07-01T01:00:00Z,26.4966,-82.1479,2.4,36.33,1111122 
SCCF RECON,ioos:station:SCCF:12:1,2009-07-01T02:00:00Z,26.4966,-82.1479,2.4,36.22,1111122 
SCCF RECON,ioos:station:SCCF:12:1,2009-07-01T03:00:00Z,26.4966,-82.1479,2.38,36.29,1111122 
SCCF RECON,ioos:station:SCCF:12:1,2009-07-01T04:00:00Z,26.4966,-82.1479,2.33,36.26,1111122 
SCCF RECON,ioos:station:SCCF:12:1,2009-07-01T05:00:00Z,26.4966,-82.1479,2.354,36.18,1111122 
SCCF RECON,ioos:station:SCCF:12:1,2009-07-01T06:00:00Z,26.4966,-82.1479,2.38,36.08,1111122 
SCCF RECON,ioos:station:SCCF:12:1,2009-07-01T07:00:00Z,26.4966,-82.1479,2.31,36.06,1111122 
SCCF RECON,ioos:station:SCCF:12:1,2009-07-01T08:00:00Z,26.4966,-82.1479,2.33,36.07,1111122 
SCCF RECON,ioos:station:SCCF:12:1,2009-07-01T09:00:00Z,26.4966,-82.1479,2.38,36.13,1111122 
SCCF RECON,ioos:station:SCCF:12:1,2009-07-01T10:00:00Z,26.4966,-82.1479,2.47,36.18,1111122 
SCCF RECON,ioos:station:SCCF:12:1,2009-07-01T11:00:00Z,26.4966,-82.1479,2.52,36.23,1111122 
SCCF RECON,ioos:station:SCCF:12:1,2009-07-01T12:00:00Z,26.4966,-82.1479,2.57,36.26,1111122 
SCCF RECON,ioos:station:SCCF:12:1,2009-07-01T13:00:00Z,26.4966,-82.1479,2.63,36.26,1111122 
SCCF RECON,ioos:station:SCCF:12:1,2009-07-01T14:00:00Z,26.4966,-82.1479,2.66,36.15,1111122 
SCCF RECON,ioos:station:SCCF:12:1,2009-07-01T15:00:00Z,26.4966,-82.1479,2.64,35.66,1111122 
SCCF RECON,ioos:station:SCCF:12:1,2009-07-01T16:00:00Z,26.4966,-82.1479,2.55,35.57,1111122 
SCCF RECON,ioos:station:SCCF:12:1,2009-07-01T17:00:00Z,26.4966,-82.1479,2.45,35.44,1111122 
SCCF RECON,ioos:station:SCCF:12:1,2009-07-01T18:00:00Z,26.4966,-82.1479,2.31,35.43,1111122 
SCCF RECON,ioos:station:SCCF:12:1,2009-07-01T19:00:00Z,26.4966,-82.1479,2.18,35.49,1111122 
SCCF RECON,ioos:station:SCCF:12:1,2009-07-01T20:00:00Z,26.4966,-82.1479,2.09,35.26,1111122 
SCCF RECON,ioos:station:SCCF:12:1,2009-07-01T21:00:00Z,26.4966,-82.1479,2.043,35.49,1111122 
SCCF RECON,ioos:station:SCCF:12:1,2009-07-01T22:00:00Z,26.4966,-82.1479,2.073,35.77,1111122 
SCCF RECON,ioos:station:SCCF:12:1,2009-07-01T23:00:00Z,26.4966,-82.1479,2.15,35.72,1111122 
SCCF RECON,ioos:station:SCCF:12:1,2009-07-02T00:00:00Z,26.4966,-82.1479,2.327,35.74,1111122 
SCCF RECON,ioos:station:SCCF:12:1,2009-07-02T01:00:00Z,26.4966,-82.1479,2.38,35.89,1111122 
SCCF RECON,ioos:station:SCCF:12:1,2009-07-02T02:00:00Z,26.4966,-82.1479,2.362,35.93,1111122 
SCCF RECON,ioos:station:SCCF:12:1,2009-07-02T03:00:00Z,26.4966,-82.1479,2.34,35.93,1111122 
SCCF RECON,ioos:station:SCCF:12:1,2009-07-02T04:00:00Z,26.4966,-82.1479,2.33,35.8,1111122 
SCCF RECON,ioos:station:SCCF:12:1,2009-07-02T05:00:00Z,26.4966,-82.1479,2.346,35.77,1111122 
SCCF RECON,ioos:station:SCCF:12:1,2009-07-02T06:00:00Z,26.4966,-82.1479,2.42,35.7,1111122 
SCCF RECON,ioos:station:SCCF:12:1,2009-07-02T07:00:00Z,26.4966,-82.1479,2.48,35.68,1111122 
SCCF RECON,ioos:station:SCCF:12:1,2009-07-02T08:00:00Z,26.4966,-82.1479,2.47,35.51,1111122 
SCCF RECON,ioos:station:SCCF:12:1,2009-07-02T09:00:00Z,26.4966,-82.1479,2.46,35.42,1111122 
SCCF RECON,ioos:station:SCCF:12:1,2009-07-02T10:00:00Z,26.4966,-82.1479,2.482,35.5,1111122 
SCCF RECON,ioos:station:SCCF:12:1,2009-07-02T11:00:00Z,26.4966,-82.1479,2.55,35.55,1111122 
SCCF RECON,ioos:station:SCCF:12:1,2009-07-02T12:00:00Z,26.4966,-82.1479,2.6,35.61,1111122 
SCCF RECON,ioos:station:SCCF:12:1,2009-07-02T13:00:00Z,26.4966,-82.1479,2.65,35.97,1111122 
SCCF RECON,ioos:station:SCCF:12:1,2009-07-02T14:00:00Z,26.4966,-82.1479,2.69,35.97,1111122 
SCCF RECON,ioos:station:SCCF:12:1,2009-07-02T15:00:00Z,26.4966,-82.1479,2.69,35.79,1111122 
SCCF RECON,ioos:station:SCCF:12:1,2009-07-02T16:00:00Z,26.4966,-82.1479,2.62,35.58,1111122 
SCCF RECON,ioos:station:SCCF:12:1,2009-07-02T17:00:00Z,26.4966,-82.1479,2.52,35.52,1111122 
SCCF RECON,ioos:station:SCCF:12:1,2009-07-02T18:00:00Z,26.4966,-82.1479,2.403,35.43,1111122 
SCCF RECON,ioos:station:SCCF:12:1,2009-07-02T19:00:00Z,26.4966,-82.1479,2.28,35.39,1111122 
SCCF RECON,ioos:station:SCCF:12:1,2009-07-02T20:00:00Z,26.4966,-82.1479,2.199,35.52,1111122 
SCCF RECON,ioos:station:SCCF:12:1,2009-07-02T21:00:00Z,26.4966,-82.1479,2.1,35.63,1111122 
SCCF RECON,ioos:station:SCCF:12:1,2009-07-02T22:00:00Z,26.4966,-82.1479,2.01,35.84,1111122 
SCCF RECON,ioos:station:SCCF:12:1,2009-07-02T23:00:00Z,26.4966,-82.1479,2.01,35.96,1111122 
SCCF RECON,ioos:station:SCCF:12:1,2009-07-03T00:00:00Z,26.4966,-82.1479,2.067,35.96,1111122 
SCCF RECON,ioos:station:SCCF:12:1,2009-07-03T01:00:00Z,26.4966,-82.1479,2.17,35.87,1111122 
SCCF RECON,ioos:station:SCCF:12:1,2009-07-03T02:00:00Z,26.4966,-82.1479,2.25,35.89,1111122 
SCCF RECON,ioos:station:SCCF:12:1,2009-07-03T03:00:00Z,26.4966,-82.1479,2.29,35.89,1111122 
SCCF RECON,ioos:station:SCCF:12:1,2009-07-03T04:00:00Z,26.4966,-82.1479,2.328,35.83,1111122 
SCCF RECON,ioos:station:SCCF:12:1,2009-07-03T05:00:00Z,26.4966,-82.1479,2.4,35.82,1111122 
SCCF RECON,ioos:station:SCCF:12:1,2009-07-03T06:00:00Z,26.4966,-82.1479,2.435,35.65,1111122 
SCCF RECON,ioos:station:SCCF:12:1,2009-07-03T07:00:00Z,26.4966,-82.1479,2.41,35.52,1111122 
SCCF RECON,ioos:station:SCCF:12:1,2009-07-03T08:00:00Z,26.4966,-82.1479,2.382,35.41,1111122 
SCCF RECON,ioos:station:SCCF:12:1,2009-07-03T09:00:00Z,26.4966,-82.1479,2.38,35.41,1111122 
SCCF RECON,ioos:station:SCCF:12:1,2009-07-03T10:00:00Z,26.4966,-82.1479,2.4,35.77,1111122 
SCCF RECON,ioos:station:SCCF:12:1,2009-07-03T11:00:00Z,26.4966,-82.1479,2.48,35.64,1111122 
SCCF RECON,ioos:station:SCCF:12:1,2009-07-03T12:00:00Z,26.4966,-82.1479,2.585,35.74,1111122 
SCCF RECON,ioos:station:SCCF:12:1,2009-07-03T13:00:00Z,26.4966,-82.1479,2.64,35.73,1111122 
SCCF RECON,ioos:station:SCCF:12:1,2009-07-03T14:00:00Z,26.4966,-82.1479,2.64,35.7,1111122 
SCCF RECON,ioos:station:SCCF:12:1,2009-07-03T15:00:00Z,26.4966,-82.1479,2.63,35.67,1111122 
SCCF RECON,ioos:station:SCCF:12:1,2009-07-03T16:00:00Z,26.4966,-82.1479,2.6,35.66,1111122 
SCCF RECON,ioos:station:SCCF:12:1,2009-07-03T17:00:00Z,26.4966,-82.1479,2.537,35.62,1111122 
SCCF RECON,ioos:station:SCCF:12:1,2009-07-03T18:00:00Z,26.4966,-82.1479,2.439,35.72,1111122 
SCCF RECON,ioos:station:SCCF:12:1,2009-07-03T19:00:00Z,26.4966,-82.1479,2.321,35.57,1111122 
SCCF RECON,ioos:station:SCCF:12:1,2009-07-03T20:00:00Z,26.4966,-82.1479,2.204,35.58,1111122 
SCCF RECON,ioos:station:SCCF:12:1,2009-07-03T21:00:00Z,26.4966,-82.1479,2.083,35.62,1111122 
SCCF RECON,ioos:station:SCCF:12:1,2009-07-03T22:00:00Z,26.4966,-82.1479,1.975,35.7,1111122 
SCCF RECON,ioos:station:SCCF:12:1,2009-07-03T23:00:00Z,26.4966,-82.1479,1.901,35.79,1111122 
SCCF RECON,ioos:station:SCCF:12:1,2009-07-04T00:00:00Z,26.4966,-82.1479,1.89,35.79,1111122 
SCCF RECON,ioos:station:SCCF:12:1,2009-07-04T01:00:00Z,26.4966,-82.1479,1.99,35.74,1111122 
SCCF RECON,ioos:station:SCCF:12:1,2009-07-04T02:00:00Z,26.4966,-82.1479,2.14,35.82,1111122 
SCCF RECON,ioos:station:SCCF:12:1,2009-07-04T03:00:00Z,26.4966,-82.1479,2.24,35.79,1111122 
SCCF RECON,ioos:station:SCCF:12:1,2009-07-04T04:00:00Z,26.4966,-82.1479,2.34,35.65,1111122 
SCCF RECON,ioos:station:SCCF:12:1,2009-07-04T05:00:00Z,26.4966,-82.1479,2.42,35.72,1111122 
SCCF RECON,ioos:station:SCCF:12:1,2009-07-04T06:00:00Z,26.4966,-82.1479,2.44,35.79,1111122 
SCCF RECON,ioos:station:SCCF:12:1,2009-07-04T07:00:00Z,26.4966,-82.1479,2.41,35.63,1111122 
SCCF RECON,ioos:station:SCCF:12:1,2009-07-04T08:00:00Z,26.4966,-82.1479,2.4,35.53,1111122 
SCCF RECON,ioos:station:SCCF:12:1,2009-07-04T09:00:00Z,26.4966,-82.1479,2.4,35.5,1111122 
SCCF RECON,ioos:station:SCCF:12:1,2009-07-04T10:00:00Z,26.4966,-82.1479,2.4,35.74,1111122 
SCCF RECON,ioos:station:SCCF:12:1,2009-07-04T11:00:00Z,26.4966,-82.1479,2.43,35.75,1111122 
SCCF RECON,ioos:station:SCCF:12:1,2009-07-04T12:00:00Z,26.4966,-82.1479,2.49,35.66,1111122 
SCCF RECON,ioos:station:SCCF:12:1,2009-07-04T13:00:00Z,26.4966,-82.1479,2.559,35.72,1111122 
SCCF RECON,ioos:station:SCCF:12:1,2009-07-04T14:00:00Z,26.4966,-82.1479,2.61,35.82,1111122 
SCCF RECON,ioos:station:SCCF:12:1,2009-07-04T15:00:00Z,26.4966,-82.1479,2.65,35.89,1111122 
SCCF RECON,ioos:station:SCCF:12:1,2009-07-04T16:00:00Z,26.4966,-82.1479,2.659,35.91,1111122 
SCCF RECON,ioos:station:SCCF:12:1,2009-07-04T17:00:00Z,26.4966,-82.1479,2.62,35.95,1111122 
SCCF RECON,ioos:station:SCCF:12:1,2009-07-04T18:00:00Z,26.4966,-82.1479,2.53,35.93,1111122 
SCCF RECON,ioos:station:SCCF:12:1,2009-07-04T19:00:00Z,26.4966,-82.1479,2.41,35.92,1111122 
SCCF RECON,ioos:station:SCCF:12:1,2009-07-04T20:00:00Z,26.4966,-82.1479,2.281,36.01,1111122 
SCCF RECON,ioos:station:SCCF:12:1,2009-07-04T21:00:00Z,26.4966,-82.1479,2.152,35.95,1111122 
SCCF RECON,ioos:station:SCCF:12:1,2009-07-04T22:00:00Z,26.4966,-82.1479,2.021,35.95,1111122 
SCCF RECON,ioos:station:SCCF:12:1,2009-07-04T23:00:00Z,26.4966,-82.1479,1.92,36.03,1111122 
SCCF RECON,ioos:station:SCCF:12:1,2009-07-05T00:00:00Z,26.4966,-82.1479,1.852,36.12,1111122 
SCCF RECON,ioos:station:SCCF:12:1,2009-07-05T01:00:00Z,26.4966,-82.1479,1.878,36.11,1111122 
SCCF RECON,ioos:station:SCCF:12:1,2009-07-05T02:00:00Z,26.4966,-82.1479,2.019,36.15,1111122 
SCCF RECON,ioos:station:SCCF:12:1,2009-07-05T03:00:00Z,26.4966,-82.1479,2.159,36.22,1111122 
SCCF RECON,ioos:station:SCCF:12:1,2009-07-05T04:00:00Z,26.4966,-82.1479,2.282,36.15,1111122 
SCCF RECON,ioos:station:SCCF:12:1,2009-07-05T05:00:00Z,26.4966,-82.1479,2.38,36.14,1111122 
SCCF RECON,ioos:station:SCCF:12:1,2009-07-05T06:00:00Z,26.4966,-82.1479,2.43,36.12,1111122 
SCCF RECON,ioos:station:SCCF:12:1,2009-07-05T07:00:00Z,26.4966,-82.1479,2.45,35.93,1111122 
SCCF RECON,ioos:station:SCCF:12:1,2009-07-05T08:00:00Z,26.4966,-82.1479,2.43,35.77,1111122 
SCCF RECON,ioos:station:SCCF:12:1,2009-07-05T09:00:00Z,26.4966,-82.1479,2.41,35.59,1111122 
SCCF RECON,ioos:station:SCCF:12:1,2009-07-05T10:00:00Z,26.4966,-82.1479,2.4,35.65,1111122 
SCCF RECON,ioos:station:SCCF:12:1,2009-07-05T11:00:00Z,26.4966,-82.1479,2.411,35.94,1111122 
SCCF RECON,ioos:station:SCCF:12:1,2009-07-05T12:00:00Z,26.4966,-82.1479,2.45,35.94,1111122 
SCCF RECON,ioos:station:SCCF:12:1,2009-07-05T13:00:00Z,26.4966,-82.1479,2.52,35.92,1111122 
SCCF RECON,ioos:station:SCCF:12:1,2009-07-05T14:00:00Z,26.4966,-82.1479,2.634,35.86,1111122 
SCCF RECON,ioos:station:SCCF:12:1,2009-07-05T15:00:00Z,26.4966,-82.1479,2.73,35.88,1111122 
SCCF RECON,ioos:station:SCCF:12:1,2009-07-05T16:00:00Z,26.4966,-82.1479,2.77,35.89,1111122 
SCCF RECON,ioos:station:SCCF:12:1,2009-07-05T17:00:00Z,26.4966,-82.1479,2.758,35.93,1111122 
SCCF RECON,ioos:station:SCCF:12:1,2009-07-05T18:00:00Z,26.4966,-82.1479,2.652,35.92,1111122 
SCCF RECON,ioos:station:SCCF:12:1,2009-07-05T19:00:00Z,26.4966,-82.1479,2.527,35.89,1111122 
SCCF RECON,ioos:station:SCCF:12:1,2009-07-05T20:00:00Z,26.4966,-82.1479,2.39,35.88,1111122 
SCCF RECON,ioos:station:SCCF:12:1,2009-07-05T21:00:00Z,26.4966,-82.1479,2.265,35.87,1111122 
SCCF RECON,ioos:station:SCCF:12:1,2009-07-05T22:00:00Z,26.4966,-82.1479,2.14,35.88,1111122 
SCCF RECON,ioos:station:SCCF:12:1,2009-07-05T23:00:00Z,26.4966,-82.1479,2.03,35.98,1111122 
SCCF RECON,ioos:station:SCCF:12:1,2009-07-06T00:00:00Z,26.4966,-82.1479,1.94,36.01,1111122 
SCCF RECON,ioos:station:SCCF:12:1,2009-07-06T01:00:00Z,26.4966,-82.1479,1.89,36.15,1111122 
SCCF RECON,ioos:station:SCCF:12:1,2009-07-06T02:00:00Z,26.4966,-82.1479,1.97,36.1,1111122 
SCCF RECON,ioos:station:SCCF:12:1,2009-07-06T03:00:00Z,26.4966,-82.1479,2.14,36.1,1111122 
SCCF RECON,ioos:station:SCCF:12:1,2009-07-06T04:00:00Z,26.4966,-82.1479,2.271,36.0,1111122 
SCCF RECON,ioos:station:SCCF:12:1,2009-07-06T05:00:00Z,26.4966,-82.1479,2.37,36.05,1111122 
SCCF RECON,ioos:station:SCCF:12:1,2009-07-06T06:00:00Z,26.4966,-82.1479,2.45,35.97,1111122 
SCCF RECON,ioos:station:SCCF:12:1,2009-07-06T07:00:00Z,26.4966,-82.1479,2.49,35.82,1111122 
SCCF RECON,ioos:station:SCCF:12:1,2009-07-06T08:00:00Z,26.4966,-82.1479,2.49,35.8,1111122 
SCCF RECON,ioos:station:SCCF:12:1,2009-07-06T09:00:00Z,26.4966,-82.1479,2.47,35.78,1111122 
SCCF RECON,ioos:station:SCCF:12:1,2009-07-06T10:00:00Z,26.4966,-82.1479,2.46,35.84,1111122 
SCCF RECON,ioos:station:SCCF:12:1,2009-07-06T11:00:00Z,26.4966,-82.1479,2.46,35.42,1111122 
SCCF RECON,ioos:station:SCCF:12:1,2009-07-06T12:00:00Z,26.4966,-82.1479,2.43,35.52,1111122 
SCCF RECON,ioos:station:SCCF:12:1,2009-07-06T13:00:00Z,26.4966,-82.1479,2.48,35.91,1111122 
SCCF RECON,ioos:station:SCCF:12:1,2009-07-06T14:00:00Z,26.4966,-82.1479,2.571,35.86,1111122 
SCCF RECON,ioos:station:SCCF:12:1,2009-07-06T15:00:00Z,26.4966,-82.1479,2.67,35.74,1111122 
SCCF RECON,ioos:station:SCCF:12:1,2009-07-06T16:00:00Z,26.4966,-82.1479,2.76,35.6,1111122 
SCCF RECON,ioos:station:SCCF:12:1,2009-07-06T17:00:00Z,26.4966,-82.1479,2.784,35.33,1111122 
SCCF RECON,ioos:station:SCCF:12:1,2009-07-06T18:00:00Z,26.4966,-82.1479,2.73,35.69,1111122 
SCCF RECON,ioos:station:SCCF:12:1,2009-07-06T19:00:00Z,26.4966,-82.1479,2.62,35.56,1111122 
SCCF RECON,ioos:station:SCCF:12:1,2009-07-06T20:00:00Z,26.4966,-82.1479,2.5,35.08,1111122 
SCCF RECON,ioos:station:SCCF:12:1,2009-07-06T21:00:00Z,26.4966,-82.1479,2.37,35.04,1111122 
SCCF RECON,ioos:station:SCCF:12:1,2009-07-06T22:00:00Z,26.4966,-82.1479,2.24,35.2,1111122 
SCCF RECON,ioos:station:SCCF:12:1,2009-07-06T23:00:00Z,26.4966,-82.1479,2.119,35.43,1111122 
SCCF RECON,ioos:station:SCCF:12:1,2009-07-07T00:00:00Z,26.4966,-82.1479,2.002,35.53,1111122 
SCCF RECON,ioos:station:SCCF:12:1,2009-07-07T01:00:00Z,26.4966,-82.1479,1.924,35.79,1111122 
SCCF RECON,ioos:station:SCCF:12:1,2009-07-07T02:00:00Z,26.4966,-82.1479,1.91,35.62,1111122 
SCCF RECON,ioos:station:SCCF:12:1,2009-07-07T03:00:00Z,26.4966,-82.1479,2.012,35.49,1111122 
SCCF RECON,ioos:station:SCCF:12:1,2009-07-07T04:00:00Z,26.4966,-82.1479,2.181,35.49,1111122 
SCCF RECON,ioos:station:SCCF:12:1,2009-07-07T05:00:00Z,26.4966,-82.1479,2.31,35.58,1111122 
SCCF RECON,ioos:station:SCCF:12:1,2009-07-07T06:00:00Z,26.4966,-82.1479,2.41,35.52,1111122 
SCCF RECON,ioos:station:SCCF:12:1,2009-07-07T07:00:00Z,26.4966,-82.1479,2.45,35.46,1111122 
SCCF RECON,ioos:station:SCCF:12:1,2009-07-07T08:00:00Z,26.4966,-82.1479,2.46,35.22,1111122 
SCCF RECON,ioos:station:SCCF:12:1,2009-07-07T09:00:00Z,26.4966,-82.1479,2.43,35.07,1111122 
SCCF RECON,ioos:station:SCCF:12:1,2009-07-07T10:00:00Z,26.4966,-82.1479,2.42,34.79,1111122 
SCCF RECON,ioos:station:SCCF:12:1,2009-07-07T11:00:00Z,26.4966,-82.1479,2.454,35.15,1111122 
SCCF RECON,ioos:station:SCCF:12:1,2009-07-07T12:00:00Z,26.4966,-82.1479,2.47,35.18,1111122 
SCCF RECON,ioos:station:SCCF:12:1,2009-07-07T13:00:00Z,26.4966,-82.1479,2.48,35.44,1111122 
SCCF RECON,ioos:station:SCCF:12:1,2009-07-07T14:00:00Z,26.4966,-82.1479,2.52,35.35,1111122 
SCCF RECON,ioos:station:SCCF:12:1,2009-07-07T15:00:00Z,26.4966,-82.1479,2.62,34.9,1111122 
SCCF RECON,ioos:station:SCCF:12:1,2009-07-07T16:00:00Z,26.4966,-82.1479,2.71,34.76,1111122 
SCCF RECON,ioos:station:SCCF:12:1,2009-07-07T17:00:00Z,26.4966,-82.1479,2.78,34.81,1111122 
SCCF RECON,ioos:station:SCCF:12:1,2009-07-07T18:00:00Z,26.4966,-82.1479,2.782,34.91,1111122 
SCCF RECON,ioos:station:SCCF:12:1,2009-07-07T19:00:00Z,26.4966,-82.1479,2.71,34.93,1111122 
SCCF RECON,ioos:station:SCCF:12:1,2009-07-07T20:00:00Z,26.4966,-82.1479,2.607,34.86,1111122 
SCCF RECON,ioos:station:SCCF:12:1,2009-07-07T21:00:00Z,26.4966,-82.1479,2.47,34.9,1111122 
SCCF RECON,ioos:station:SCCF:12:1,2009-07-07T22:00:00Z,26.4966,-82.1479,2.33,34.93,1111122 
SCCF RECON,ioos:station:SCCF:12:1,2009-07-07T23:00:00Z,26.4966,-82.1479,2.2,34.95,1111122 
SCCF RECON,ioos:station:SCCF:12:1,2009-07-08T00:00:00Z,26.4966,-82.1479,2.08,35.06,1111122 
SCCF RECON,ioos:station:SCCF:12:1,2009-07-08T01:00:00Z,26.4966,-82.1479,1.99,35.44,1111122 
SCCF RECON,ioos:station:SCCF:12:1,2009-07-08T02:00:00Z,26.4966,-82.1479,1.941,35.68,1111122 
SCCF RECON,ioos:station:SCCF:12:1,2009-07-08T03:00:00Z,26.4966,-82.1479,1.98,35.77,1111122 
SCCF RECON,ioos:station:SCCF:12:1,2009-07-08T04:00:00Z,26.4966,-82.1479,2.09,35.8,1111122 
SCCF RECON,ioos:station:SCCF:12:1,2009-07-08T05:00:00Z,26.4966,-82.1479,2.214,35.59,1111122 
SCCF RECON,ioos:station:SCCF:12:1,2009-07-08T06:00:00Z,26.4966,-82.1479,2.35,35.55,1111122 
SCCF RECON,ioos:station:SCCF:12:1,2009-07-08T07:00:00Z,26.4966,-82.1479,2.43,35.79,1111122 
SCCF RECON,ioos:station:SCCF:12:1,2009-07-08T08:00:00Z,26.4966,-82.1479,2.47,35.21,1111122 
SCCF RECON,ioos:station:SCCF:12:1,2009-07-08T09:00:00Z,26.4966,-82.1479,2.47,35.08,1111122 
SCCF RECON,ioos:station:SCCF:12:1,2009-07-08T10:00:00Z,26.4966,-82.1479,2.426,34.78,1111122 
SCCF RECON,ioos:station:SCCF:12:1,2009-07-08T11:00:00Z,26.4966,-82.1479,2.38,34.66,1111122 
SCCF RECON,ioos:station:SCCF:12:1,2009-07-08T12:00:00Z,26.4966,-82.1479,2.365,35.31,1111122 
SCCF RECON,ioos:station:SCCF:12:1,2009-07-08T13:00:00Z,26.4966,-82.1479,2.39,35.35,1111122 
SCCF RECON,ioos:station:SCCF:12:1,2009-07-08T14:00:00Z,26.4966,-82.1479,2.445,35.34,1111122 
SCCF RECON,ioos:station:SCCF:12:1,2009-07-08T15:00:00Z,26.4966,-82.1479,2.54,34.6,1111122 
SCCF RECON,ioos:station:SCCF:12:1,2009-07-08T16:00:00Z,26.4966,-82.1479,2.64,34.79,1111122 
SCCF RECON,ioos:station:SCCF:12:1,2009-07-08T17:00:00Z,26.4966,-82.1479,2.725,34.88,1111122 
SCCF RECON,ioos:station:SCCF:12:1,2009-07-08T18:00:00Z,26.4966,-82.1479,2.77,35.09,1111122 
SCCF RECON,ioos:station:SCCF:12:1,2009-07-08T19:00:00Z,26.4966,-82.1479,2.759,35.08,1111122 
SCCF RECON,ioos:station:SCCF:12:1,2009-07-08T20:00:00Z,26.4966,-82.1479,2.66,34.74,1111122 
SCCF RECON,ioos:station:SCCF:12:1,2009-07-08T21:00:00Z,26.4966,-82.1479,2.54,34.56,1111122 
SCCF RECON,ioos:station:SCCF:12:1,2009-07-08T22:00:00Z,26.4966,-82.1479,2.42,34.57,1111122 
SCCF RECON,ioos:station:SCCF:12:1,2009-07-08T23:00:00Z,26.4966,-82.1479,2.29,34.57,1111122 
SCCF RECON,ioos:station:SCCF:12:1,2009-07-09T00:00:00Z,26.4966,-82.1479,2.169,34.86,1111122 
SCCF RECON,ioos:station:SCCF:12:1,2009-07-09T01:00:00Z,26.4966,-82.1479,2.06,35.1,1111122 
SCCF RECON,ioos:station:SCCF:12:1,2009-07-09T02:00:00Z,26.4966,-82.1479,1.97,35.38,1111122 
SCCF RECON,ioos:station:SCCF:12:1,2009-07-09T03:00:00Z,26.4966,-82.1479,1.94,35.51,1111122 
SCCF RECON,ioos:station:SCCF:12:1,2009-07-09T04:00:00Z,26.4966,-82.1479,2.01,35.42,1111122 
SCCF RECON,ioos:station:SCCF:12:1,2009-07-09T05:00:00Z,26.4966,-82.1479,2.17,35.18,1111122 
SCCF RECON,ioos:station:SCCF:12:1,2009-07-09T06:00:00Z,26.4966,-82.1479,2.327,35.23,1111122 
SCCF RECON,ioos:station:SCCF:12:1,2009-07-09T07:00:00Z,26.4966,-82.1479,2.43,35.14,1111122 
SCCF RECON,ioos:station:SCCF:12:1,2009-07-09T08:00:00Z,26.4966,-82.1479,2.462,34.98,1111122 
SCCF RECON,ioos:station:SCCF:12:1,2009-07-09T09:00:00Z,26.4966,-82.1479,2.449,35.07,1111122 
SCCF RECON,ioos:station:SCCF:12:1,2009-07-09T10:00:00Z,26.4966,-82.1479,2.39,35.08,1111122 
SCCF RECON,ioos:station:SCCF:12:1,2009-07-09T11:00:00Z,26.4966,-82.1479,2.35,35.04,1111122 
SCCF RECON,ioos:station:SCCF:12:1,2009-07-09T12:00:00Z,26.4966,-82.1479,2.35,34.47,1111122 
SCCF RECON,ioos:station:SCCF:12:1,2009-07-09T13:00:00Z,26.4966,-82.1479,2.35,34.67,1111122 
SCCF RECON,ioos:station:SCCF:12:1,2009-07-09T14:00:00Z,26.4966,-82.1479,2.38,34.88,1111122 
SCCF RECON,ioos:station:SCCF:12:1,2009-07-09T15:00:00Z,26.4966,-82.1479,2.46,34.67,1111122 
SCCF RECON,ioos:station:SCCF:12:1,2009-07-09T16:00:00Z,26.4966,-82.1479,2.56,34.74,1111122 
SCCF RECON,ioos:station:SCCF:12:1,2009-07-09T17:00:00Z,26.4966,-82.1479,2.65,34.4,1111122 
SCCF RECON,ioos:station:SCCF:12:1,2009-07-09T18:00:00Z,26.4966,-82.1479,1.0,0.68,1111122 
SCCF RECON,ioos:station:SCCF:12:1,2009-07-09T19:00:00Z,26.4966,-82.1479,2.689,34.74,1111122 
SCCF RECON,ioos:station:SCCF:12:1,2009-07-09T20:00:00Z,26.4966,-82.1479,2.64,34.63,1111122 
SCCF RECON,ioos:station:SCCF:12:1,2009-07-09T21:00:00Z,26.4966,-82.1479,2.56,34.6,1111122 
SCCF RECON,ioos:station:SCCF:12:1,2009-07-09T22:00:00Z,26.4966,-82.1479,2.44,34.87,1111122 
SCCF RECON,ioos:station:SCCF:12:1,2009-07-09T23:00:00Z,26.4966,-82.1479,2.312,34.71,1111122 
SCCF RECON,ioos:station:SCCF:12:1,2009-07-10T00:00:00Z,26.4966,-82.1479,2.227,34.39,1111122 
SCCF RECON,ioos:station:SCCF:12:1,2009-07-10T01:00:00Z,26.4966,-82.1479,2.077,34.04,1111122 
SCCF RECON,ioos:station:SCCF:12:1,2009-07-10T02:00:00Z,26.4966,-82.1479,1.98,34.06,1111122 
SCCF RECON,ioos:station:SCCF:12:1,2009-07-10T03:00:00Z,26.4966,-82.1479,1.95,33.84,1111122 
SCCF RECON,ioos:station:SCCF:12:1,2009-07-10T04:00:00Z,26.4966,-82.1479,2.031,33.92,1111122 
SCCF RECON,ioos:station:SCCF:12:1,2009-07-10T05:00:00Z,26.4966,-82.1479,2.207,34.34,1111122 
SCCF RECON,ioos:station:SCCF:12:1,2009-07-10T06:00:00Z,26.4966,-82.1479,2.338,34.22,1111122 
SCCF RECON,ioos:station:SCCF:12:1,2009-07-10T07:00:00Z,26.4966,-82.1479,2.42,33.83,1111122 
SCCF RECON,ioos:station:SCCF:12:1,2009-07-10T08:00:00Z,26.4966,-82.1479,2.46,34.02,1111122 
SCCF RECON,ioos:station:SCCF:12:1,2009-07-10T09:00:00Z,26.4966,-82.1479,2.47,33.03,1111122 
SCCF RECON,ioos:station:SCCF:12:1,2009-07-10T10:00:00Z,26.4966,-82.1479,2.415,32.8,1111122 
SCCF RECON,ioos:station:SCCF:12:1,2009-07-10T11:00:00Z,26.4966,-82.1479,2.36,32.72,1111122 
SCCF RECON,ioos:station:SCCF:12:1,2009-07-10T12:00:00Z,26.4966,-82.1479,2.29,32.6,1111122 
SCCF RECON,ioos:station:SCCF:12:1,2009-07-10T13:00:00Z,26.4966,-82.1479,2.29,32.43,1111122 
SCCF RECON,ioos:station:SCCF:12:1,2009-07-10T14:00:00Z,26.4966,-82.1479,2.34,33.07,1111122 
SCCF RECON,ioos:station:SCCF:12:1,2009-07-10T15:00:00Z,26.4966,-82.1479,2.4,33.18,1111122 
SCCF RECON,ioos:station:SCCF:12:1,2009-07-10T16:00:00Z,26.4966,-82.1479,2.478,33.0,1111122 
SCCF RECON,ioos:station:SCCF:12:1,2009-07-10T17:00:00Z,26.4966,-82.1479,2.577,33.06,1111122 
SCCF RECON,ioos:station:SCCF:12:1,2009-07-10T18:00:00Z,26.4966,-82.1479,2.65,33.13,1111122 
SCCF RECON,ioos:station:SCCF:12:1,2009-07-10T19:00:00Z,26.4966,-82.1479,2.66,32.64,1111122 
SCCF RECON,ioos:station:SCCF:12:1,2009-07-10T20:00:00Z,26.4966,-82.1479,2.626,32.75,1111122 
SCCF RECON,ioos:station:SCCF:12:1,2009-07-10T21:00:00Z,26.4966,-82.1479,2.56,32.91,1111122 
SCCF RECON,ioos:station:SCCF:12:1,2009-07-10T22:00:00Z,26.4966,-82.1479,2.47,33.27,1111122 
SCCF RECON,ioos:station:SCCF:12:1,2009-07-10T23:00:00Z,26.4966,-82.1479,2.36,32.9,1111122 
SCCF RECON,ioos:station:SCCF:12:1,2009-07-11T00:00:00Z,26.4966,-82.1479,2.26,33.17,1111122 
SCCF RECON,ioos:station:SCCF:12:1,2009-07-11T01:00:00Z,26.4966,-82.1479,2.15,32.91,1111122 
SCCF RECON,ioos:station:SCCF:12:1,2009-07-11T02:00:00Z,26.4966,-82.1479,2.06,32.65,1111122 
SCCF RECON,ioos:station:SCCF:12:1,2009-07-11T03:00:00Z,26.4966,-82.1479,2.01,33.24,1111122 
SCCF RECON,ioos:station:SCCF:12:1,2009-07-11T04:00:00Z,26.4966,-82.1479,2.038,31.78,1111122 
SCCF RECON,ioos:station:SCCF:12:1,2009-07-11T05:00:00Z,26.4966,-82.1479,2.159,31.27,1111122 
SCCF RECON,ioos:station:SCCF:12:1,2009-07-11T06:00:00Z,26.4966,-82.1479,2.31,32.03,1111122 
SCCF RECON,ioos:station:SCCF:12:1,2009-07-11T07:00:00Z,26.4966,-82.1479,2.41,31.97,1111122 
SCCF RECON,ioos:station:SCCF:12:1,2009-07-11T08:00:00Z,26.4966,-82.1479,2.49,32.06,1111122 
SCCF RECON,ioos:station:SCCF:12:1,2009-07-11T09:00:00Z,26.4966,-82.1479,2.51,31.31,1111122 
SCCF RECON,ioos:station:SCCF:12:1,2009-07-11T10:00:00Z,26.4966,-82.1479,2.47,31.24,1111122 
SCCF RECON,ioos:station:SCCF:12:1,2009-07-11T11:00:00Z,26.4966,-82.1479,2.42,31.13,1111122 
SCCF RECON,ioos:station:SCCF:12:1,2009-07-11T12:00:00Z,26.4966,-82.1479,2.36,30.9,1111122 
SCCF RECON,ioos:station:SCCF:12:1,2009-07-11T13:00:00Z,26.4966,-82.1479,2.26,30.98,1111122 
SCCF RECON,ioos:station:SCCF:12:1,2009-07-11T14:00:00Z,26.4966,-82.1479,2.23,31.31,1111122 
SCCF RECON,ioos:station:SCCF:12:1,2009-07-11T15:00:00Z,26.4966,-82.1479,2.287,31.36,1111122 
SCCF RECON,ioos:station:SCCF:12:1,2009-07-11T16:00:00Z,26.4966,-82.1479,2.4,31.46,1111122 
SCCF RECON,ioos:station:SCCF:12:1,2009-07-11T17:00:00Z,26.4966,-82.1479,2.531,31.53,1111122 
SCCF RECON,ioos:station:SCCF:12:1,2009-07-11T18:00:00Z,26.4966,-82.1479,2.6,31.6,1111122 